Regional Weather Roundup
Issued by NWS

Home | Current Version | Previous Version | Graphics & Text | Print | Product List | Glossary On
Versions: 1 2 3 4 5 6 7 8 9 10 11 12 13 14 15 16 17 18 19 20 21 22 23 24 25 26 27 28 29 30 31 32 33 34 35 36 37 38 39 40 41 42 43 44 45 46 47 48 49 50
000
ASUS43 KIND 210009
RWRIN

WEATHER ROUNDUP FOR INDIANA
NATIONAL WEATHER SERVICE INDIANAPOLIS IN
800 PM EDT SUN APR 20 2014

NOTE: "FAIR" INDICATES FEW OR NO CLOUDS BELOW 12,000 FEET WITH NO
SIGNIFICANT WEATHER AND/OR OBSTRUCTIONS TO VISIBILITY.

* - STATION DOES NOT REPORT WEATHER SUCH AS PRECIPITATION OR FOG.

+ - STATION NOT QUALITY CONTROLLED BY THE NATIONAL WEATHER SERVICE.
    USE DATA WITH CAUTION...ESPECIALLY DEWPOINT AND RELATIVE
    HUMIDITY OBSERVATIONS.

INZ001>003-010>013-019-020-210100-
NORTHWEST INDIANA

CITY           SKY/WX    TMP DP  RH WIND       PRES   REMARKS
GARY /AIRPORT/ PTCLDY    77  36  22 S7        30.07F
LA PORTE +     PTCLDY    71  34  26 S5        30.10F
6HR MIN TEMP:  69; 6HR MAX TEMP:  74;

MICHIGAN CITY+ MOCLDY    72  32  23 S5        30.09S
MONTICELLO +   PTCLDY    72  37  27 E3        30.09F
RENSSELAER +   PTCLDY    70  34  26 SE5       30.09S
VALPARAISO     PTCLDY    71  35  26 S7        30.09F
6HR MIN TEMP:  70; 6HR MAX TEMP:  76;


$$

LMZ046-743>745-210100-
SOUTHERN LAKE MICHIGAN

STATION/POSITION TIME  TEMP WIND        PRES
                       AIR  DIR/SP/G
                 (UTC) (F)  (DEG/KT/KT) (MB)
MICHIGAN CITY    0000   62   40/  8/  9   N/A

$$

INZ004-005-014>016-021>024-210100-
NORTH CENTRAL INDIANA

CITY           SKY/WX    TMP DP  RH WIND       PRES   REMARKS
GOSHEN         PTCLDY    69  34  27 SW3       30.11F
6HR MIN TEMP:  68; 6HR MAX TEMP:  74;

LOGANSPORT +   PTCLDY    70  30  23 CALM      30.11S
PERU/GRISSOM   CLEAR     72  35  25 CALM      30.10F
6HR MIN TEMP:  70; 6HR MAX TEMP:  76;

ROCHESTER +    PTCLDY    72  30  21 CALM      30.11F
SOUTH BEND     PTCLDY    72  32  23 S9        30.11F
6HR MIN TEMP:  70; 6HR MAX TEMP:  75;

WARSAW +       PTCLDY    70  32  24 S3        30.11F

$$

INZ006>009-017-018-025>027-210100-
NORTHEAST INDIANA

CITY           SKY/WX    TMP DP  RH WIND       PRES   REMARKS
ANGOLA *+      CLEAR     70  48  46 SW5       30.12F
AUBURN +       PTCLDY    70  32  24 CALM      30.12F
FORT WAYNE     PTCLDY    68  34  28 SW5       30.12F
6HR MIN TEMP:  68; 6HR MAX TEMP:  75;


$$

INZ028-029-035-036-043>045-051>053-210100-
WEST CENTRAL INDIANA

CITY           SKY/WX    TMP DP  RH WIND       PRES   REMARKS
GREENCASTLE +  PTCLDY    70  39  32 CALM      30.11F
LAFAYETTE      CLEAR     72  34  24 S5        30.09F
6HR MIN TEMP:  70; 6HR MAX TEMP:  75;

TERRE HAUTE    PTCLDY    71  46  40 CALM      30.11F
6HR MIN TEMP:  71; 6HR MAX TEMP:  75;


$$

INZ030>032-037>040-046>048-054>057-064-065-210100-
CENTRAL INDIANA

CITY           SKY/WX    TMP DP  RH WIND       PRES   REMARKS
CP ATTERBURY + PTCLDY    70  37  30 SE7       30.11F
COLUMBUS       CLEAR     68  37  32 SE5       30.11F
FRANKFORT +    CLEAR     73  27  17 CALM      30.12F
INDIANAPOLIS   PTCLDY    71  34  25 CALM      30.10F
6HR MIN TEMP:  69; 6HR MAX TEMP:  75;

-EAGLE CREEK   CLEAR     72  31  22 CALM      30.10F
6HR MIN TEMP:  69; 6HR MAX TEMP:  75;

KOKOMO *+        N/A     70  36  28 S5        30.11S
MARION +       CLEAR     69  34  27 S6        30.12F
MT COMFORT *+  PTCLDY    72  39  30 S5        30.12F
SHELBYVILLE    MOCLDY    72  39  30 S5        30.10F
6HR MIN TEMP:  72; 6HR MAX TEMP:  77;

ZIONSVILLE +   CLEAR     71  30  22 SW5       30.11F
6HR MIN TEMP:  70; 6HR MAX TEMP:  75;


$$

INZ033-034-041-042-049-050-058-059-210100-
EAST CENTRAL INDIANA

CITY           SKY/WX    TMP DP  RH WIND       PRES   REMARKS
MUNCIE         PTCLDY    72  35  25 SW5       30.11F
6HR MIN TEMP:  70; 6HR MAX TEMP:  74;


$$

INZ060-061-067>069-081>083-085>088-210100-
SOUTHWEST INDIANA

CITY           SKY/WX    TMP DP  RH WIND       PRES   REMARKS
EVANSVILLE     MOCLDY    75  35  23 CALM      30.11F
6HR MIN TEMP:  73; 6HR MAX TEMP:  79;

HUNTINGBURG *+ CLEAR     73  39  29 CALM      30.11S
6HR MIN TEMP:  73; 6HR MAX TEMP:  77;

WASHINGTON +   CLEAR     71  42  35 W3        30.10F
6HR MIN TEMP:  71; 6HR MAX TEMP:  76;


$$

INZ062-063-066-070>080-084-089>092-210100-
SOUTH CENTRAL AND SOUTHEAST INDIANA

CITY           SKY/WX    TMP DP  RH WIND       PRES   REMARKS
BLOOMINGTON    CLEAR     71  34  25 SW5       30.11F
6HR MIN TEMP:  71; 6HR MAX TEMP:  77;

NORTH VERNON + MOCLDY    73  34  23 CALM      30.12F

$$




USA.gov is the U.S. government's official web portal to all federal, state and local government web resources and services.